GFSNE_925_spd_114.txt.gz
Wind_Speed
32 30 27 25 25 25 24 23 17 9 7 15 19 23 32 36 41 39 41 36 45 43 44 43 41 39 36 36 34 33 31 29 28 26 26 25 24 22
28 28 27 25 23 24 24 24 25 22 12 16 22 23 25 34 40 44 39 38 38 46 44 45 44 42 40 39 37 35 33 32 31 30 29 28 28 28
25 26 27 24 24 25 26 26 24 23 14 22 20 24 28 30 34 38 42 38 34 39 45 46 45 44 43 42 40 39 39 38 36 34 33 33 33 31
24 25 25 22 22 25 24 25 26 26 23 19 22 24 30 33 36 39 41 40 33 33 42 46 47 45 43 42 41 40 39 38 36 34 33 34 33 31
18 17 19 19 22 24 26 27 26 26 29 27 24 26 28 27 32 34 35 35 32 32 33 37 44 44 43 43 42 41 39 38 36 34 33 33 31 28
11 11 15 17 20 23 24 26 29 30 29 28 25 19 23 26 31 29 26 29 29 27 30 32 38 42 41 41 40 39 38 37 36 35 32 30 27 23
7 8 9 12 20 25 27 25 25 27 31 29 23 22 20 18 29 27 26 25 22 31 29 28 27 33 36 38 38 38 37 37 35 32 30 25 23 27
4 7 9 13 14 22 25 31 34 34 28 25 26 23 27 28 28 28 27 16 5 26 31 22 22 23 25 26 30 31 30 30 29 27 26 27 28 28
9 12 11 11 15 18 19 22 21 24 32 34 28 32 31 34 33 32 29 31 25 26 31 15 22 23 23 22 25 28 29 29 30 29 29 28 25 22
15 18 15 14 14 16 13 12 10 12 17 23 32 24 30 37 42 43 40 30 19 31 31 7 20 19 24 26 24 25 28 29 29 28 26 24 23 21
19 23 20 17 17 11 7 6 7 9 10 4 5 14 24 30 36 29 23 28 5 14 21 14 18 22 22 24 21 22 24 25 26 27 26 24 20 18
19 22 27 24 22 13 11 8 12 15 11 11 11 8 5 4 15 24 33 30 12 4 20 12 32 20 7 18 23 24 24 24 21 22 21 19 18 12
21 22 24 24 23 20 17 18 13 9 13 17 18 20 23 21 22 17 10 16 14 7 26 22 26 19 8 14 19 26 24 25 22 20 17 14 12 10
21 21 21 19 24 23 22 18 17 17 20 25 25 25 25 28 28 27 24 22 17 17 19 16 18 21 14 15 11 24 29 28 22 17 13 10 8 8
18 21 24 24 23 28 27 23 21 24 25 26 22 22 22 22 27 32 32 32 30 24 15 9 21 22 23 15 17 19 20 14 15 13 9 7 6 4
16 18 20 21 24 26 29 29 25 24 24 23 21 21 23 26 30 27 25 25 32 37 30 28 26 22 26 26 28 20 20 9 13 10 9 7 5 4
14 16 19 20 19 20 21 20 19 19 19 18 19 19 20 23 25 24 26 26 26 24 26 33 33 36 32 26 24 17 16 14 11 9 8 5 3 3
16 18 18 18 18 18 17 16 17 17 16 14 15 15 15 15 17 19 21 22 20 18 18 17 19 22 23 25 18 15 13 12 8 6 4 4 4 4
16 16 15 15 14 14 15 14 14 14 13 13 13 13 12 13 14 15 15 15 16 15 14 12 9 8 7 5 7 12 10 7 6 5 3 3 4 4
17 15 15 14 14 13 13 12 12 12 13 12 12 11 11 11 11 12 12 12 13 12 12 11 11 10 10 4 7 6 9 7 5 3 2 2 5 6
15 14 14 13 13 12 11 11 11 11 11 10 10 11 10 9 10 10 11 10 10 10 11 10 8 9 10 13 13 9 4 3 3 2 1 3 3 3
14 13 12 12 12 12 11 10 9 9 9 9 9 8 8 8 8 8 8 8 8 9 10 9 8 7 7 7 9 8 6 2 3 4 1 2 1 2
12 11 11 11 11 11 11 10 9 8 8 8 7 7 7 6 6 7 7 7 7 8 8 8 8 8 8 8 7 7 5 3 2 1 3 5 6 7

GFSNE_925_spd_120.txt.gz
Wind_Speed
35 36 33 31 28 27 29 23 11 4 5 18 19 26 28 27 27 28 32 34 33 39 45 47 50 51 49 47 44 43 42 40 35 36 35 33 32 30
34 33 34 29 28 31 30 27 24 14 6 17 20 18 25 29 27 26 29 32 37 37 39 48 52 53 52 49 47 44 44 43 38 36 36 34 33 33
31 31 33 31 26 26 25 24 25 24 10 16 20 18 21 28 28 26 27 28 32 35 37 42 48 50 53 51 50 46 46 46 42 40 37 35 34 33
31 30 30 29 29 27 25 22 24 27 20 14 16 19 20 21 24 29 29 31 31 33 33 36 49 49 50 52 53 52 49 48 46 43 41 38 37 34
27 30 26 26 25 24 20 20 18 18 18 16 18 17 22 25 26 26 30 32 31 34 34 33 42 50 52 52 55 56 53 51 49 47 45 42 41 39
26 19 17 18 15 16 14 7 2 2 4 8 12 16 18 19 21 21 21 30 31 33 36 37 39 47 55 55 56 59 57 55 52 49 47 45 43 41
26 21 20 18 13 8 7 11 8 11 11 8 11 13 14 16 17 22 24 25 29 33 35 39 41 47 50 54 57 58 60 57 55 52 50 48 46 44
25 22 14 13 10 11 7 3 3 6 7 5 8 10 16 18 19 22 25 23 5 28 37 35 41 42 46 53 57 58 60 58 55 54 52 50 47 45
30 27 23 20 17 10 8 6 7 6 5 3 5 4 11 9 20 26 19 19 20 23 32 24 30 32 35 41 48 54 57 58 56 55 51 49 46 45
37 36 31 30 24 15 8 7 8 8 8 6 4 6 9 13 15 20 26 27 29 20 28 10 16 11 17 20 26 32 40 52 55 54 49 47 43 41
31 37 38 33 30 20 14 12 10 14 9 5 5 6 7 8 12 13 8 10 7 12 26 14 10 11 6 6 6 8 20 33 39 40 41 40 44 49
37 37 40 33 27 27 27 20 18 17 14 10 8 8 10 11 12 12 12 8 5 2 14 10 15 12 5 10 16 20 23 28 36 40 46 44 47 47
28 31 36 31 34 33 28 23 19 16 17 15 16 15 16 17 18 18 16 12 9 3 4 11 10 12 7 10 12 21 27 28 28 31 30 38 33 34
26 29 27 25 26 30 32 29 27 27 26 21 20 20 21 21 17 17 16 15 11 7 3 10 8 11 8 5 9 19 22 25 25 25 27 26 28 21
26 25 24 24 24 28 28 27 26 24 20 17 18 20 22 20 18 17 16 16 19 16 6 2 5 18 18 15 12 17 20 19 24 24 23 25 29 26
23 24 23 23 24 25 25 28 27 26 23 19 18 19 21 24 25 24 22 15 21 26 20 10 8 15 16 22 27 22 26 10 23 23 23 22 23 22
21 23 25 24 23 24 24 23 24 24 23 23 22 20 21 21 21 22 22 20 18 18 21 26 22 22 26 23 22 21 24 25 25 25 25 21 19 19
23 23 22 23 23 23 22 21 23 24 23 22 22 22 18 19 18 20 20 20 17 19 19 15 16 26 29 32 21 22 21 23 22 20 21 18 16 13
23 22 22 22 22 21 22 21 20 21 22 21 21 21 20 19 18 17 17 16 16 17 19 22 14 12 7 7 17 19 22 22 22 21 17 13 15 15
24 21 21 22 22 22 21 21 20 21 21 19 20 21 19 16 15 15 16 15 13 14 16 21 20 14 9 3 6 17 16 17 16 16 14 15 14 11
23 22 21 20 21 22 23 22 22 22 22 21 21 19 21 16 14 15 12 12 12 11 11 12 13 14 13 18 11 9 13 14 14 14 12 10 8 7
21 22 22 20 20 21 22 22 20 21 21 23 21 20 20 18 17 13 13 11 9 8 8 6 6 8 12 12 12 10 8 9 7 6 9 6 6 6
19 20 21 21 19 20 20 20 21 19 20 18 20 22 19 15 14 14 11 10 11 7 6 6 8 11 10 13 13 11 10 8 8 8 7 5 3 3

GFSNE_925_spd_123.txt.gz
Wind_Speed
37 45 43 33 30 29 30 25 13 5 9 19 17 34 39 38 35 30 30 28 28 31 37 40 41 47 49 49 47 46 45 44 43 40 38 37 35 33
35 37 34 30 31 31 33 34 29 15 4 22 25 21 34 37 34 32 32 29 28 28 31 38 44 46 51 53 52 49 47 46 45 43 40 40 39 36
35 35 33 33 30 30 31 32 28 25 9 9 13 24 23 32 31 30 30 29 29 29 29 34 38 41 47 53 56 54 50 49 48 45 44 43 39 41
34 32 34 34 31 28 29 30 28 32 18 7 12 17 24 23 22 27 32 31 31 30 30 30 35 40 44 48 54 56 52 51 49 47 47 45 43 42
31 33 33 30 28 26 29 28 23 19 20 16 16 20 27 20 22 24 30 33 34 32 31 31 31 33 40 44 48 52 53 55 54 51 50 49 47 45
15 19 18 20 21 26 26 24 20 17 15 15 11 10 14 15 18 18 18 27 29 30 35 35 33 33 35 38 45 51 53 55 55 53 53 53 50 49
26 21 21 20 16 14 16 17 18 17 16 14 10 5 6 6 9 14 21 22 25 31 31 36 36 37 36 36 40 48 54 57 58 59 59 57 55 53
32 29 23 19 25 19 15 10 7 7 7 4 2 2 1 1 6 6 8 6 6 20 29 33 32 35 38 37 40 43 54 61 62 63 62 61 59 56
40 30 34 29 21 18 22 19 20 18 12 1 4 3 1 4 9 13 10 9 10 14 8 22 28 34 34 33 37 42 46 50 54 56 62 63 62 59
46 42 40 34 24 19 21 22 23 22 21 13 11 6 5 5 7 9 14 19 25 31 29 10 22 22 26 29 35 40 41 43 45 48 53 61 64 58
42 44 45 35 31 30 29 25 26 23 14 17 10 9 10 10 9 8 6 9 5 6 10 13 11 11 11 13 17 24 30 33 36 36 40 49 58 56
30 33 38 41 40 32 39 32 29 22 19 18 16 15 14 13 13 13 11 6 7 5 6 4 4 5 1 2 1 3 8 13 17 23 25 33 40 39
33 35 38 34 31 32 31 27 24 26 26 24 23 22 22 18 18 15 12 10 8 6 7 6 5 7 3 3 5 7 11 14 15 22 25 25 22 30
29 28 29 27 27 29 31 27 26 22 22 22 22 24 24 24 19 14 12 11 8 10 13 9 6 11 8 4 4 9 12 15 18 20 21 18 23 24
28 26 26 28 26 30 30 30 29 26 23 21 20 20 21 20 20 18 11 11 12 14 10 5 8 10 15 9 10 12 14 11 17 22 22 22 22 23
28 28 26 25 28 28 30 32 30 28 25 23 21 21 22 23 24 21 19 14 13 20 18 13 4 7 6 10 14 18 19 9 20 20 21 22 23 24
24 26 28 27 27 27 26 26 27 28 26 24 23 21 20 22 22 20 18 16 14 14 19 20 20 14 14 13 12 15 19 22 22 23 24 23 20 22
26 26 25 24 24 24 24 25 25 26 25 24 22 21 19 19 18 18 18 18 15 17 16 14 9 11 15 24 16 16 18 19 23 22 24 23 21 19
26 24 22 22 22 23 24 24 24 26 25 25 25 25 22 19 18 17 17 15 14 15 16 13 9 8 3 3 11 14 15 18 21 19 18 14 18 20
24 24 23 24 23 23 23 24 24 25 27 24 25 26 27 21 18 16 16 16 12 12 14 17 15 9 3 2 5 16 13 19 20 20 21 21 18 15
22 22 21 21 22 24 26 25 23 24 25 24 24 24 25 23 20 19 17 8 11 9 8 11 11 6 13 14 8 9 15 11 13 18 20 19 12 9
20 21 19 20 22 22 22 23 22 23 23 22 22 24 24 23 20 18 17 17 11 5 7 9 10 8 6 6 9 8 8 11 12 11 11 7 5 5
17 16 17 17 20 21 18 21 23 25 20 20 20 23 23 23 20 18 15 16 16 16 11 5 7 8 10 10 10 9 10 9 7 6 4 2 4 5

GFSNE_925_spd_129.txt.gz
Wind_Speed
24 30 32 29 31 33 45 31 13 14 11 12 18 26 39 44 46 42 40 36 35 34 33 32 33 33 35 36 39 42 41 45 45 45 44 45 43 41
22 24 26 25 32 36 37 39 32 18 9 16 22 24 25 36 43 42 42 35 35 33 32 30 30 30 32 35 38 42 43 44 47 47 48 48 47 46
22 25 29 32 35 31 26 28 27 27 11 19 21 23 28 30 36 38 40 37 38 36 32 31 28 27 27 30 34 40 43 46 47 50 52 52 51 50
21 27 31 30 31 31 26 28 27 19 17 11 22 25 25 33 33 32 35 36 37 37 36 33 31 28 27 30 29 33 37 40 46 49 53 56 57 55
4 6 7 16 21 21 26 25 27 29 29 24 27 25 27 31 28 29 28 29 30 33 33 32 31 29 27 29 30 30 32 39 43 48 51 56 59 61
23 21 15 10 1 11 10 26 34 29 27 30 30 23 20 24 25 20 17 26 27 29 28 27 25 24 25 28 28 30 34 34 37 41 44 47 48 57
31 28 28 29 17 10 6 7 13 23 29 26 24 19 17 14 20 18 19 20 21 20 22 21 22 22 24 26 28 30 32 34 37 36 36 40 42 46
33 33 30 26 27 32 21 19 15 14 5 10 15 13 5 3 11 14 13 8 4 10 14 17 16 19 21 22 26 26 30 31 34 35 37 38 39 42
40 36 34 34 23 24 28 31 35 34 28 21 24 21 15 14 9 1 5 5 3 4 4 8 13 12 13 15 21 23 26 30 31 31 30 30 31 35
45 41 39 39 33 28 28 34 33 36 36 29 27 25 17 14 10 3 8 3 2 3 4 4 10 14 16 19 21 21 23 25 26 28 29 30 31 33
40 41 44 38 35 35 32 31 30 33 29 30 32 25 24 21 15 13 18 7 3 6 12 4 5 7 9 12 14 16 17 17 19 21 22 25 28 31
33 38 39 37 36 35 35 30 28 30 29 32 33 31 28 26 24 26 16 10 7 2 14 16 7 8 5 3 6 8 10 11 13 16 18 21 22 25
31 33 34 31 36 35 35 34 28 25 27 26 26 25 27 28 26 21 15 17 15 5 16 15 8 7 4 6 6 9 11 12 12 13 14 17 18 14
28 27 28 29 29 34 35 30 29 29 28 26 25 25 25 27 27 22 16 12 13 10 15 12 6 12 9 7 5 7 11 11 11 10 10 9 11 11
26 23 25 29 30 36 36 36 38 33 28 26 24 22 23 23 24 25 23 12 11 14 15 17 14 14 12 9 9 8 7 6 7 6 6 4 3 2
29 31 30 32 35 35 36 37 37 35 27 24 22 23 24 24 27 27 23 26 13 21 14 13 15 17 12 9 10 12 9 6 4 3 1 1 1 0
27 30 31 29 29 30 29 30 31 33 31 29 29 27 26 24 25 25 23 21 14 16 21 24 16 7 10 12 7 10 8 6 2 3 3 7 7 5
32 29 28 25 25 25 26 25 27 29 30 27 27 26 25 23 22 23 24 20 16 17 18 22 25 18 4 5 12 9 6 2 2 2 5 10 12 10
28 25 24 25 23 24 26 26 28 31 26 26 26 26 26 23 21 20 22 23 19 19 20 20 19 14 3 2 6 11 7 2 5 4 3 6 9 12
23 24 25 25 23 22 26 27 30 31 30 27 25 26 26 23 20 20 20 21 21 17 17 20 20 16 5 3 5 11 8 4 7 9 12 14 15 12
22 22 22 22 23 25 23 24 26 28 29 28 26 26 26 25 22 21 22 24 22 17 17 18 19 15 13 8 4 5 12 11 5 10 16 13 6 4
18 18 18 18 19 21 24 24 26 29 30 29 26 25 24 23 22 22 23 23 22 19 18 24 17 15 10 5 2 2 3 6 8 9 10 5 4 3
17 18 17 17 17 18 19 21 21 24 27 25 25 24 23 23 22 22 22 22 22 23 22 21 20 11 10 6 3 3 1 2 3 5 8 5 5 4

GFSNE_925_spd_132.txt.gz
Wind_Speed
18 21 28 25 43 46 41 27 12 3 2 20 27 34 31 34 43 45 48 49 45 41 36 41 38 38 36 38 37 38 38 36 43 43 44 44 44 41
27 27 22 26 28 30 30 30 27 19 13 35 28 36 33 34 38 38 39 45 43 40 35 36 37 38 36 37 38 37 39 37 41 45 45 46 46 46
19 22 25 23 25 27 27 24 23 25 12 13 26 32 30 27 28 28 31 36 39 38 37 35 35 36 35 36 37 39 40 40 41 46 46 46 48 48
8 17 19 21 25 24 24 24 23 24 21 13 21 27 39 34 30 28 32 33 34 38 39 37 34 34 35 35 36 35 37 38 42 43 44 46 49 51
20 16 14 7 8 17 22 22 23 22 25 21 18 24 32 28 26 22 26 32 30 33 36 35 35 35 37 35 35 34 33 32 34 39 42 47 49 49
31 31 33 30 21 11 7 4 14 22 23 23 26 19 22 24 25 17 17 25 30 31 32 30 29 30 31 31 32 29 29 31 30 29 33 38 41 45
38 34 37 28 33 35 26 20 11 9 11 18 22 21 19 17 16 15 24 24 22 25 26 24 22 22 24 23 23 24 25 26 28 31 31 33 37 40
38 37 38 38 31 33 33 39 36 22 8 5 6 6 4 6 5 6 7 10 5 13 18 18 19 20 19 19 22 22 22 23 26 29 31 33 37 39
43 38 39 42 38 34 35 37 41 40 34 23 17 12 8 14 12 10 4 1 8 4 4 9 13 15 14 16 19 21 22 23 25 26 26 28 31 33
42 43 40 42 40 37 34 37 37 37 37 33 28 25 24 16 8 6 8 2 8 12 7 1 1 7 8 9 10 12 15 18 21 23 24 26 29 30
38 42 42 41 38 36 38 32 32 35 31 27 28 29 33 31 26 15 16 11 4 5 20 8 7 6 2 5 7 9 11 11 12 15 16 18 21 24
32 35 37 38 36 34 35 30 29 29 32 33 34 36 37 37 35 29 26 15 8 5 22 15 7 10 5 4 3 3 5 5 6 8 10 13 15 16
30 32 35 33 35 35 35 34 28 28 30 23 24 31 37 37 36 31 26 27 18 9 19 18 15 12 7 8 8 7 9 10 10 11 12 14 16 16
29 29 30 30 31 36 37 33 33 35 33 28 28 30 29 30 31 28 20 20 18 17 18 18 7 13 8 5 5 10 16 17 14 13 12 13 14 14
26 24 27 31 32 37 33 33 39 37 31 29 26 26 27 25 25 29 27 14 16 19 18 16 15 15 7 8 8 8 12 9 11 10 10 10 11 11
33 34 31 33 37 36 39 40 37 34 29 25 24 26 27 29 26 27 22 26 18 24 22 22 19 12 13 14 8 10 9 6 11 9 6 7 8 9
31 34 35 32 32 33 33 35 37 35 33 29 28 27 28 27 26 27 26 23 17 20 22 27 26 10 6 12 8 13 11 7 7 6 5 5 10 9
33 32 29 28 27 26 27 27 31 33 31 27 28 27 28 24 23 23 24 23 20 20 20 22 25 19 10 2 11 13 12 9 7 5 3 3 8 9
31 30 29 29 24 26 28 30 29 34 32 31 28 27 25 23 22 22 22 21 21 20 21 21 18 16 6 4 7 13 16 11 6 5 4 2 4 7
25 24 23 24 23 24 26 27 30 33 33 31 31 30 30 23 21 20 20 21 21 20 21 21 19 17 12 4 5 12 11 13 6 1 4 7 9 9
19 19 19 19 20 20 22 23 25 29 30 30 30 29 29 27 24 21 20 21 20 18 19 20 24 19 16 11 7 7 8 10 8 3 4 3 0 0
18 16 15 16 16 17 19 21 23 26 27 28 28 28 28 26 25 22 22 21 19 19 19 23 24 20 12 10 10 7 7 5 4 4 4 3 1 2
21 21 18 14 15 15 16 18 20 21 23 24 25 26 25 26 24 23 21 20 19 20 20 23 23 17 13 9 9 7 5 5 4 3 4 5 2 2

GFSNE_925_spd_138.txt.gz
Wind_Speed
23 25 27 27 21 24 24 25 16 12 13 21 20 28 26 28 26 24 21 23 27 26 23 26 32 40 45 47 46 45 44 44 43 40 39 35 41 43
21 21 22 24 25 23 27 24 32 18 10 24 30 36 28 30 25 20 22 29 33 35 34 30 30 36 40 44 44 46 47 44 45 44 41 38 41 45
11 9 6 7 8 17 18 27 19 23 11 16 22 28 34 36 39 33 35 37 39 40 40 33 29 32 35 39 40 43 46 45 45 46 44 42 41 45
21 17 15 9 8 10 9 8 5 12 18 16 23 21 25 28 38 45 32 26 29 28 32 31 23 26 32 35 38 41 45 46 47 48 47 45 43 44
28 29 27 21 17 14 12 12 12 8 15 16 17 22 31 27 31 36 34 33 31 28 25 25 23 23 26 27 33 41 42 44 47 49 50 47 46 44
31 32 33 34 30 19 19 16 14 13 15 14 13 7 2 5 6 7 13 20 24 20 22 24 23 28 26 23 27 33 41 43 46 49 49 48 48 46
35 34 34 30 32 37 31 25 21 20 21 18 16 12 16 13 18 17 13 22 5 16 8 7 14 28 26 26 26 30 35 40 45 48 50 50 49 46
33 33 33 34 30 32 36 40 40 26 26 21 20 16 22 16 15 16 16 11 5 19 20 10 10 3 8 11 20 27 30 34 37 41 45 44 46 45
35 34 33 35 27 27 31 33 37 36 34 26 23 24 17 24 16 12 9 8 4 20 15 5 20 11 13 13 8 14 19 24 25 30 36 39 43 42
38 35 34 36 33 25 25 30 31 35 34 30 28 23 25 26 18 11 12 5 7 24 28 11 26 18 17 12 17 14 11 2 4 12 19 25 31 37
32 38 35 34 34 29 28 26 27 27 24 24 24 24 25 31 31 24 29 17 8 11 33 9 16 17 10 13 13 15 16 13 10 9 5 6 11 18
27 31 36 37 35 34 32 28 26 25 23 23 25 27 29 30 31 30 24 20 14 6 21 12 15 13 6 8 15 17 22 18 11 10 11 11 8 7
27 28 32 33 36 34 32 30 24 19 21 22 23 25 27 28 29 27 24 20 18 10 19 16 9 13 7 7 10 16 25 18 19 15 13 12 9 8
24 23 25 27 30 34 33 28 26 22 22 23 25 27 28 28 26 24 22 16 15 14 16 18 9 12 10 7 5 16 25 13 19 20 16 13 12 9
21 21 22 25 25 27 31 31 30 28 26 26 24 23 22 20 20 21 19 19 11 15 16 17 17 16 11 11 15 11 17 13 15 17 18 16 16 14
18 19 20 21 24 24 27 29 28 27 26 25 24 23 22 23 22 23 20 21 15 17 16 18 18 16 13 11 13 12 13 10 16 13 14 11 12 13
16 18 20 22 23 24 24 25 25 25 25 23 22 23 23 23 23 23 21 20 19 19 20 20 20 17 14 7 9 12 14 13 13 15 13 12 5 8
17 19 20 21 21 22 22 22 23 24 23 22 22 22 22 21 22 21 21 21 21 21 21 21 21 20 18 4 5 12 14 15 16 16 11 10 8 6
17 17 17 17 17 18 18 19 20 21 20 21 21 21 22 21 21 21 21 21 21 21 20 20 19 19 10 9 18 7 21 16 16 15 10 7 8 5
15 15 15 15 15 15 16 16 17 18 19 20 20 21 21 21 20 20 20 21 21 21 20 19 18 19 18 14 21 25 15 11 13 16 15 9 9 8
14 13 13 14 14 14 14 14 15 15 15 17 18 19 20 20 20 20 20 20 21 20 21 20 21 22 22 22 17 18 16 14 11 13 15 15 12 8
12 12 13 13 13 14 14 14 15 15 15 15 16 17 18 19 19 20 20 22 21 21 21 23 24 22 20 19 19 20 19 16 15 15 12 9 7 5
12 12 12 12 12 13 14 14 15 15 15 14 15 15 17 18 19 19 20 20 21 22 22 24 23 22 21 21 20 19 20 18 15 15 12 9 10 12